Home > Weather > Homs > Past weeks

Flag for Syria Weather for the Past 2 Weeks in Homs, Syria

Now
75 °F

Scattered clouds.


Feels Like: 77 °F
Forecast: 59 / 72 °F
Wind: 5 mph from West

Location: Lattakia Airport

Current Time: May 3, 2016 at 11:47:31 AM

Latest Report: May 3, 2016 at 11:00 AM


Visibility: N/A

Pressure: 29.89 "Hg (28.20 "Hg at 505m altitude)

Humidity: 61%

Dew Point: 61 °F

Location of HomsLocation

Historic Weather in Homs — Graph

°F

Homs Temperature Yesterday

Maximum temperature yesterday: 75 °F (at 12:00 PM)
Minimum temperature yesterday: 63 °F (at 6:00 AM)
Average temperature yesterday: 70 °F

High & Low Weather Summary for the Past Weeks

 TemperatureHumidityPressure
High91 °F (May 1, 3:00 PM)94% (Apr 29, 11:00 PM)30.07 "Hg (Apr 29, 11:00 PM)
Low52 °F (Apr 23, 6:00 AM)19% (Apr 21, 11:00 PM)29.65 "Hg (Apr 25, 3:00 PM)
Average69 °F61%29.89 "Hg
* Reported Apr 18 10:00 AM — May 3 10:00 AM, Homs, Weather by CustomWeather, © 2016

Note: Actual official high and low records may vary slightly from our data, if they occured in-between our weather recording intervals... More about our weather records

Advertising

Homs Weather History for the Previous 24 Hours

Scroll right to see more
 ConditionsComfort  
Time TempWeatherWind HumidityBarometerVisibility
10:00 AM
Tue, May 3
73 °FScattered clouds.9 mph69%29.89 "HgN/A
9:00 AM72 °FScattered clouds.5 mph61%29.89 "HgN/A
8:00 AM68 °FSunny.1 mph69%29.86 "Hg10 mi
7:00 AM61 °FPartly sunny.5 mph83%29.86 "HgN/A
6:00 AM59 °FPassing clouds.5 mph94%29.83 "HgN/A
5:00 AM61 °FPassing clouds.3 mph83%29.83 "HgN/A
4:00 AM63 °FPassing clouds.5 mph88%29.83 "HgN/A
3:00 AM64 °FPassing clouds.2 mph88%29.86 "HgN/A
2:00 AM66 °FPassing clouds.3 mph88%29.86 "Hg5 mi
1:00 AM66 °FPassing clouds.6 mph88%29.89 "HgN/A
12:00 AM66 °FPassing clouds.5 mph83%29.89 "HgN/A
11:00 PM
Mon, May 2
68 °FPassing clouds.9 mph83%29.92 "HgN/A
10:00 PM70 °FPassing clouds.10 mph83%29.89 "HgN/A
9:00 PM70 °FPassing clouds.12 mph83%29.89 "Hg4 mi
8:00 PM70 °FFog.8 mph88%29.89 "Hg2 mi
7:00 PM72 °FFog.9 mph73%29.86 "Hg2 mi
6:00 PM73 °FFog.12 mph74%29.86 "Hg2 mi
5:00 PM73 °FFog.7 mph69%29.86 "Hg2 mi
4:00 PM75 °FFog.7 mph74%29.86 "Hg2 mi
3:00 PM75 °FFog.8 mph74%29.86 "Hg2 mi
2:00 PM75 °FBroken clouds.12 mph74%29.86 "Hg2 mi
1:00 PM75 °FFog.9 mph69%29.89 "Hg2 mi
12:00 PM75 °FFog.9 mph69%29.89 "Hg2 mi
11:00 AM73 °FFog.9 mph74%29.89 "Hg2 mi
Weather by CustomWeather, © 2016

See weather overviewHow to use our weather pages